Volver al catálogo

STARLINK-35281

ActivoComunicacionesVLEO
NORAD 65824·PAYLOAD·🇺🇸 United States

Lanzado Sep 29, 2025 desde Vandenberg Space Force Base

Loading…

Próximos Pases (próximas 24 horas)

TLE

ActualizadoSource: CelesTrak SupGP

Época: Sep 14, 2026, 14:37 UTC

1 65824C 25221B   26257.60951389  .00022540  00000+0  66613-3 0  2574
2 65824  53.1575 288.9836 0001259  75.6550 298.8004 15.34371241    15

Sigue STARLINK-35281 en tiempo real con AllMySat

Download on the App Store